Карточка аэропорта UOOO

Внимание!
Информация на этой странице в стадии наполнения.
Если вы не увидели какой-то информации, или заметили неточность - пожалуйста сообщите нам!
Спасибо!
Команда RU-STAFF
Название аэропортаАлыкель
Название аэропорта (англ.)Alykel
Превышение574 ft. (175 m.)
Координаты69°19.02', 87°19.02'
Высота перехода1200m
Эшелон переходаQFE>744:FL60;744>QFE>717:FL70;717>QFE:FL80
Коды ответчика5401-5427
Зона ОрВДКрасноярск РПИ (UNKL)
Данные METARUOOO 141100Z 14005MPS CAVOK 20/03 Q1003 R19/CLRD60 NOSIG RMK QFE736/0981
Проноз погоды (TAF)UOOO 140756Z 1409/1509 14005G10MPS 9999 SCT016 BECMG 1421/1423 08003G08MPS TEMPO 1423/1503 BKN012 TEMPO 1503/1509 02005G10MPS
NOTAMshow/hide NOTAM
AWOS   TABLE

Информация о ВПП

ВПП Длина ВПП (м.) Покрытие Курс ВПП Частота ILS
013430Бетон13109.5
193430Бетон193110.3

Диспетчерские позиции

Позывной Наименование органа УВД Частота
UOOO_TWRНорильск - Старт118.300
UOOO_APPНорильск - Круг120.400
UOOO_GNDНорильск - Руление121.700



Спутниковое изображение